Weather in Bol'shoye Sudach'ye

Russia / Volgograd Oblast     50°49′40″N   44°05′18″E
temp.,
°C
wind,
m/s
gust,
m/s
humid.,
%
clouds,
%
prec.,
mm/h
press.,
hPa
HPBL,
m
24 june, thu
thu2400:00+22ne345611 0.0 101838
03:00+21ne35665 0.0 101869
06:00+23ene367330 0.0 1019152
09:00+29ene57548 0.0 1018537
12:00+32ene55425 0.0 10181846
15:00+33ne44395 0.0 10172372
18:00+31ne355419 0.0 1017181
21:00+25ne476777 0.0 101799
25 june, fri
fri2500:00+23ene466983 0.0 101788
03:00+22ene367196 0.0 101796
06:00+23ene367641 0.0 1017172
09:00+28ene455935 0.0 1016562
12:00+31ene444745 0.0 10161390
15:00+32ene44405 0.0 10151670
18:00+29ene465429 0.0 1015282
21:00+24e33665 0.0 101435
26 june, sat
sat2600:00+23ene336866 0.0 101435
03:00+21ene347510 0.0 101455
06:00+24ene24765 0.0 1014131
09:00+29ese45545 0.0 1014757
12:00+32e34425 0.0 10131745
15:00+33e44395 0.0 10122169
18:00+31ene355138 0.0 1012203
21:00+25ene33627 0.0 101239
27 june, sun
sun2700:00+24ene47651 0.0 1012110
03:00+22e36765 0.0 101293
06:00+24e37723 0.0 1013203
09:00+30ese46513 0.0 1012569
12:00+33ese34393 0.0 10121561
15:00+34ene33354 0.0 10122315
18:00+32ene46500 0.0 1012201
21:00+26e49655 0.0 1012151
28 june, mon
mon2800:00+24e49635 0.1 1012147
03:00+23e496946 0.1 1012141
06:00+24ese36725 0.1 1012161
09:00+30ese44495 0.1 1012604
12:00+33ese443927 0.0 10111624
15:00+34ese333566 0.0 10102176
18:00+32e345097 0.0 1010112
21:00+25sse61266100 0.3 1011329